This demonstration page uses our WeatherBlox Daily Observations layout. Learn more.

36.17497, -115.13722

Hourly Observations for October 30, 2020

Temp ( °F °C ) Dew Point ( °F °C ) Humidity (%) Winds ( mph kmh ) Pressure ( in mb ) Visibility ( mi km ) Precip ( " mm )
12:53 am 00:53 Clear 61 16.1 23 -5 23 23 W 3 6 30.06 1018 10 16.0934 0 0
1:53 am 01:53 Clear 57 13.9 24 -4.4 28 28 WNW 7 11 30.07 1018 10 16.0934 0 0
2:53 am 02:53 Clear 56 13.3 21 -6.1 26 26 WNW 7 11 30.06 1018 10 16.0934 0 0
3:53 am 03:53 Clear 55 12.8 24 -4.4 30 30 W 6 9 30.06 1018 10 16.0934 0 0
4:53 am 04:53 Clear 54 12.2 23 -5 30 30 Calm 30.07 1018 10 16.0934 0 0
5:53 am 05:53 Clear 53 11.7 24 -4.4 32 32 WNW 7 11 30.09 1019 10 16.0934 0 0
6:53 am 06:53 Clear 54 12.2 24 -4.4 31 31 WNW 9 15 30.1 1019 10 16.0934 0 0
7:53 am 07:53 Sunny 55 12.8 23 -5 29 29 WNW 7 11 30.11 1020 10 16.0934 0 0
8:53 am 08:53 Sunny 63 17.2 23 -5 22 22 Calm 30.13 1020 10 16.0934 0 0
9:53 am 09:53 Sunny 69 20.6 20 -6.7 15 15 Calm 30.12 1020 10 16.0934 0 0
10:53 am 10:53 Sunny 71 21.7 20 -6.7 14 14 Calm 30.11 1020 10 16.0934 0 0
11:53 am 11:53 Sunny 74 23.3 20 -6.7 13 13 SE 3 6 30.09 1019 10 16.0934 0 0
12:53 pm 12:53 Sunny 77 25 20 -6.7 12 12 ESE 7 11 30.06 1018 10 16.0934 0 0
1:53 pm 13:53 Sunny 78 25.6 20 -6.7 11 11 Calm 30.03 1017 10 16.0934 0 0
2:53 pm 14:53 Sunny 79 26.1 20 -6.7 11 11 Calm 30.01 1016 10 16.0934 0 0
3:53 pm 15:53 Sunny 79 26.1 21 -6.1 11 11 Calm 29.99 1016 10 16.0934 0 0
4:53 pm 16:53 Sunny 79 26.1 21 -6.1 11 11 ESE 3 6 29.98 1015 10 16.0934 0 0
5:53 pm 17:53 Clear 77 25 22 -5.6 13 13 Calm 29.99 1016 10 16.0934 0 0
6:53 pm 18:53 Clear 73 22.8 22 -5.6 15 15 Calm 30.01 1016 10 16.0934 0 0
7:53 pm 19:53 Clear 67 19.4 28 -2.2 23 23 W 7 11 30.02 1017 10 16.0934 0 0
8:53 pm 20:53 Clear 65 18.3 25 -3.9 22 22 WNW 8 13 30.02 1017 10 16.0934 0 0
9:53 pm 21:53 Clear 62 16.7 26 -3.3 25 25 WNW 7 11 30.03 1017 10 16.0934 0 0
10:53 pm 22:53 Clear 62 16.7 26 -3.3 25 25 W 9 15 30.04 1017 10 16.0934 0 0
11:53 pm 23:53 Clear 60 15.6 26 -3.3 27 27 W 6 9 30.04 1017 10 16.0934 0 0

Powered by AerisWeather